TimeEDT,TemperatureF,Dew PointF,Humidity,Sea Level PressureIn,VisibilityMPH,Wind Direction,Wind SpeedMPH,Gust SpeedMPH,PrecipitationIn,Events,Conditions,WindDirDegrees,DateUTC
12:15 AM,57.2,48.2,72,30.17,10.0,North,5.8,-,N/A,,Clear,10,2012-09-20 04:15:00
12:35 AM,57.2,48.2,72,30.17,10.0,North,6.9,-,N/A,,Clear,10,2012-09-20 04:35:00
12:55 AM,57.2,50.0,77,30.18,10.0,North,5.8,-,N/A,,Clear,10,2012-09-20 04:55:00
1:15 AM,57.2,53.6,88,30.18,10.0,NNE,5.8,-,N/A,,Clear,20,2012-09-20 05:15:00
1:35 AM,57.2,51.8,82,30.17,10.0,NNE,8.1,-,N/A,,Clear,30,2012-09-20 05:35:00
1:55 AM,57.2,50.0,77,30.17,10.0,NE,6.9,-,N/A,,Clear,40,2012-09-20 05:55:00
2:15 AM,57.2,51.8,82,30.18,10.0,NE,8.1,-,N/A,,Clear,50,2012-09-20 06:15:00
2:35 AM,57.2,50.0,77,30.18,10.0,NE,9.2,-,N/A,,Clear,50,2012-09-20 06:35:00
2:55 AM,57.2,50.0,77,30.18,10.0,NE,9.2,-,N/A,,Clear,50,2012-09-20 06:55:00
3:15 AM,57.2,48.2,72,30.18,10.0,NE,11.5,-,N/A,,Clear,50,2012-09-20 07:15:00
3:35 AM,57.2,48.2,72,30.18,10.0,NE,11.5,19.6,N/A,,Clear,50,2012-09-20 07:35:00
3:55 AM,57.2,48.2,72,30.19,10.0,NE,11.5,16.1,N/A,,Clear,50,2012-09-20 07:55:00
4:15 AM,57.2,50.0,77,30.19,10.0,NE,13.8,19.6,N/A,,Clear,50,2012-09-20 08:15:00
4:35 AM,57.2,48.2,72,30.19,10.0,ENE,11.5,18.4,N/A,,Clear,60,2012-09-20 08:35:00
4:55 AM,57.2,48.2,72,30.20,10.0,NE,13.8,19.6,N/A,,Clear,50,2012-09-20 08:55:00
5:15 AM,57.2,48.2,72,30.20,10.0,ENE,13.8,19.6,N/A,,Clear,60,2012-09-20 09:15:00
5:35 AM,55.4,46.4,72,30.21,10.0,NE,11.5,-,N/A,,Clear,50,2012-09-20 09:35:00
5:55 AM,55.4,48.2,77,30.21,10.0,NE,11.5,-,N/A,,Clear,50,2012-09-20 09:55:00
6:15 AM,55.4,48.2,77,30.21,-9999.0,NE,12.7,-,N/A,,Unknown,50,2012-09-20 10:15:00
6:35 AM,55.4,48.2,77,30.21,10.0,NE,12.7,18.4,N/A,,Clear,50,2012-09-20 10:35:00
6:55 AM,55.4,46.4,72,30.22,10.0,ENE,10.4,-,N/A,,Clear,60,2012-09-20 10:55:00
7:15 AM,57.2,48.2,72,30.22,10.0,NE,12.7,-,N/A,,Clear,50,2012-09-20 11:15:00
7:35 AM,57.2,48.2,72,30.22,10.0,ENE,13.8,-,N/A,,Clear,60,2012-09-20 11:35:00
7:55 AM,59.0,48.2,67,30.22,10.0,ENE,15.0,18.4,N/A,,Clear,60,2012-09-20 11:55:00
8:15 AM,59.0,48.2,67,30.23,10.0,ENE,15.0,-,N/A,,Clear,60,2012-09-20 12:15:00
8:35 AM,60.8,48.2,63,30.23,10.0,ENE,16.1,20.7,N/A,,Clear,60,2012-09-20 12:35:00
8:55 AM,59.0,48.2,67,30.23,10.0,NE,17.3,23.0,N/A,,Clear,50,2012-09-20 12:55:00
9:15 AM,60.8,48.2,63,30.23,10.0,ENE,13.8,23.0,N/A,,Clear,70,2012-09-20 13:15:00
9:35 AM,62.6,48.2,59,30.23,10.0,NE,17.3,20.7,N/A,,Clear,50,2012-09-20 13:35:00
9:55 AM,62.6,48.2,59,30.23,10.0,ENE,15.0,23.0,N/A,,Clear,70,2012-09-20 13:55:00
10:15 AM,62.6,48.2,59,30.23,10.0,ENE,15.0,20.7,N/A,,Clear,60,2012-09-20 14:15:00
10:35 AM,62.6,48.2,59,30.22,10.0,ENE,15.0,19.6,N/A,,Clear,70,2012-09-20 14:35:00
10:55 AM,62.6,48.2,59,30.22,10.0,East,13.8,-,N/A,,Clear,80,2012-09-20 14:55:00
11:15 AM,64.4,48.2,56,30.22,10.0,ENE,16.1,20.7,N/A,,Clear,70,2012-09-20 15:15:00
11:35 AM,64.4,48.2,56,30.21,10.0,NE,13.8,18.4,N/A,,Clear,40,2012-09-20 15:35:00
11:55 AM,64.4,48.2,56,30.21,10.0,NE,11.5,16.1,N/A,,Unknown,40,2012-09-20 15:55:00
12:15 PM,64.4,48.2,56,30.21,10.0,East,10.4,20.7,N/A,,Clear,80,2012-09-20 16:15:00
12:35 PM,64.4,46.4,52,30.20,10.0,NE,12.7,18.4,N/A,,Clear,50,2012-09-20 16:35:00
12:55 PM,64.4,46.4,52,30.19,10.0,NE,12.7,18.4,N/A,,Unknown,40,2012-09-20 16:55:00
1:15 PM,64.4,46.4,52,30.19,10.0,ENE,15.0,19.6,N/A,,Clear,60,2012-09-20 17:15:00
1:35 PM,64.4,48.2,56,30.19,10.0,NE,13.8,18.4,N/A,,Clear,50,2012-09-20 17:35:00
1:55 PM,64.4,46.4,52,30.19,10.0,NE,13.8,18.4,N/A,,Clear,50,2012-09-20 17:55:00
2:15 PM,64.4,46.4,52,30.19,10.0,NE,12.7,18.4,N/A,,Clear,50,2012-09-20 18:15:00
2:35 PM,64.4,46.4,52,30.18,10.0,NNE,10.4,-,N/A,,Clear,30,2012-09-20 18:35:00
2:55 PM,62.6,46.4,55,30.19,10.0,NE,12.7,-,N/A,,Clear,50,2012-09-20 18:55:00
3:15 PM,62.6,46.4,55,30.18,10.0,NE,13.8,-,N/A,,Clear,50,2012-09-20 19:15:00
3:35 PM,62.6,48.2,59,30.18,10.0,NE,13.8,-,N/A,,Clear,50,2012-09-20 19:35:00
3:55 PM,62.6,48.2,59,30.17,10.0,NE,11.5,-,N/A,,Clear,40,2012-09-20 19:55:00
4:15 PM,62.6,48.2,59,30.17,10.0,NE,11.5,-,N/A,,Clear,40,2012-09-20 20:15:00
4:35 PM,62.6,48.2,59,30.17,10.0,NE,13.8,17.3,N/A,,Unknown,50,2012-09-20 20:35:00
4:55 PM,60.8,48.2,63,30.17,10.0,NE,13.8,19.6,N/A,,Clear,40,2012-09-20 20:55:00
5:15 PM,59.0,48.2,67,30.17,10.0,NE,10.4,17.3,N/A,,Clear,40,2012-09-20 21:15:00
5:35 PM,59.0,48.2,67,30.17,10.0,NE,8.1,-,N/A,,Clear,40,2012-09-20 21:35:00
5:55 PM,59.0,48.2,67,30.17,10.0,NE,8.1,-,N/A,,Clear,40,2012-09-20 21:55:00
6:15 PM,57.2,48.2,72,30.17,10.0,NE,5.8,-,N/A,,Clear,50,2012-09-20 22:15:00
6:35 PM,55.4,48.2,77,30.17,10.0,NNE,5.8,-,N/A,,Clear,30,2012-09-20 22:35:00
6:55 PM,55.4,48.2,77,30.18,10.0,NE,5.8,-,N/A,,Clear,40,2012-09-20 22:55:00
7:15 PM,55.4,48.2,77,30.17,10.0,NE,6.9,-,N/A,,Clear,40,2012-09-20 23:15:00
7:35 PM,55.4,48.2,77,30.18,10.0,North,4.6,-,N/A,,Clear,10,2012-09-20 23:35:00
7:55 PM,53.6,48.2,82,30.18,10.0,North,4.6,-,N/A,,Clear,10,2012-09-20 23:55:00
8:15 PM,53.6,48.2,82,30.18,10.0,North,4.6,-,N/A,,Clear,10,2012-09-21 00:15:00
8:35 PM,51.8,48.2,88,30.18,10.0,NNE,3.5,-,N/A,,Clear,20,2012-09-21 00:35:00
8:55 PM,50.0,48.2,94,30.18,10.0,Calm,Calm,-,N/A,,Clear,0,2012-09-21 00:55:00
9:15 PM,51.8,48.2,88,30.18,10.0,NNE,4.6,-,N/A,,Clear,30,2012-09-21 01:15:00
9:35 PM,50.0,48.2,94,30.17,10.0,NE,4.6,-,N/A,,Clear,40,2012-09-21 01:35:00
9:55 PM,51.8,48.2,88,30.17,10.0,NE,4.6,-,N/A,,Clear,40,2012-09-21 01:55:00
10:15 PM,51.8,48.2,88,30.18,10.0,NE,3.5,-,N/A,,Clear,50,2012-09-21 02:15:00
10:35 PM,50.0,46.4,87,30.17,10.0,NE,3.5,-,N/A,,Clear,50,2012-09-21 02:35:00
10:55 PM,50.0,48.2,94,30.16,10.0,NE,4.6,-,N/A,,Clear,50,2012-09-21 02:55:00
11:15 PM,50.0,48.2,94,30.17,10.0,NE,3.5,-,N/A,,Clear,40,2012-09-21 03:15:00
11:35 PM,50.0,48.2,94,30.16,10.0,NE,4.6,-,N/A,,Clear,50,2012-09-21 03:35:00
11:55 PM,50.0,48.2,94,30.16,10.0,NE,4.6,-,N/A,,Clear,50,2012-09-21 03:55:00